Temp
18 18 18 18 18 18 18 18 18 17 17 17 17 17 17 17 17 17 17 16 16 16 16 15 15 15 16 16 16 16 15 15 15 15 15 15 14 14 14 14 14 15 14 15 15 15 15 15 15 15 15 15
17 17 17 17 18 18 18 18 18 17 17 17 17 17 17 17 17 17 17 16 16 16 15 15 15 15 16 16 16 16 16 15 15 15 15 15 14 14 14 14 14 14 14 14 14 15 15 15 15 15 15 15
17 17 17 17 17 17 17 17 18 17 17 17 17 17 17 17 17 17 17 16 16 16 15 15 15 15 16 17 17 16 16 15 15 15 14 14 14 14 15 14 14 14 14 14 14 14 14 14 14 14 14 14
16 17 17 17 17 17 17 16 17 17 17 17 17 17 17 17 17 17 17 16 16 16 15 15 15 16 16 17 17 17 16 16 15 15 15 14 14 15 15 14 14 14 14 14 15 14 14 14 14 14 14 14
17 17 17 17 16 16 16 16 16 17 17 17 17 17 17 17 17 17 17 16 16 16 15 15 16 16 16 16 17 17 17 16 15 15 15 14 14 15 15 14 14 14 14 14 14 14 14 14 14 14 14 14
17 17 17 16 16 16 16 16 16 16 17 17 17 17 17 17 16 16 16 16 16 15 15 15 15 16 16 16 16 16 16 16 15 15 14 14 14 15 15 14 14 14 14 14 14 14 14 14 14 14 13 13
16 16 16 16 16 16 16 16 16 16 16 17 17 17 16 16 16 16 16 16 16 15 15 15 15 16 16 16 16 16 16 16 15 15 14 14 14 15 14 14 14 14 14 13 14 14 14 14 13 13 13 13
15 15 16 16 15 15 16 16 16 16 16 16 16 17 16 16 16 16 16 16 16 15 15 15 15 15 15 15 16 15 15 15 15 15 14 14 14 14 14 14 14 14 14 13 13 13 13 13 13 13 13 13
14 14 15 15 16 16 16 16 16 16 16 16 16 16 16 16 16 16 16 16 15 15 15 15 15 15 15 15 15 15 15 15 14 14 14 14 14 14 14 14 14 14 14 13 13 13 13 13 13 13 13 13
14 13 14 14 15 15 15 15 15 15 15 15 15 16 16 16 16 16 16 15 15 15 15 15 15 15 14 14 15 15 15 15 14 14 13 13 14 13 13 13 13 13 13 13 13 13 13 13 12 12 12 12
13 12 12 13 13 14 14 14 15 15 15 15 15 15 16 16 16 16 16 15 15 15 14 15 15 15 14 14 14 14 15 15 14 13 13 13 13 13 13 13 13 13 13 13 13 13 12 12 12 12 12 12
12 12 12 12 13 13 13 14 14 14 14 14 14 15 15 15 16 16 16 15 15 14 14 14 14 14 14 13 14 14 14 14 13 13 13 13 13 12 12 12 12 12 12 12 12 12 12 12 12 12 11 11
12 11 11 12 12 13 13 13 13 13 14 14 14 14 14 14 15 16 15 15 14 14 13 12 12 12 12 12 13 13 13 13 13 13 13 12 12 12 11 11 11 11 11 11 11 12 11 11 11 11 11 11
11 11 11 12 12 12 12 13 13 13 13 14 14 14 13 13 14 14 15 15 14 14 12 11 11 11 11 11 11 12 12 12 12 12 12 11 11 11 11 10 10 10 10 10 10 10 10 10 10 10 10 10
10 10 11 11 11 11 12 12 12 12 13 13 13 13 13 13 13 13 14 14 15 14 13 12 11 11 11 11 11 11 11 11 11 11 11 10 10 10 10 9 9 9 9 8 8 8 8 8 9 9 10 10
9 10 10 11 11 11 11 11 11 12 12 12 12 13 12 12 13 13 13 13 13 13 13 13 12 11 11 10 10 10 10 10 10 10 10 10 9 9 9 8 8 8 8 7 6 6 6 7 7 7 8 9
9 9 10 10 10 10 11 11 11 11 11 11 12 12 12 11 12 12 12 12 11 11 12 13 13 12 12 11 11 11 11 10 10 10 9 9 9 9 9 8 8 7 7 7 6 5 5 5 6 6 6 7
8 8 8 9 9 10 10 10 10 10 10 11 11 11 11 11 11 11 11 11 11 10 11 11 12 12 11 11 11 12 11 11 10 10 9 9 9 8 8 8 7 7 7 6 6 5 5 5 4 4 5 5
8 7 7 8 8 9 9 9 10 10 10 10 10 10 10 10 10 10 10 10 10 10 10 10 10 10 10 11 11 11 11 11 10 10 9 9 9 8 7 7 7 7 7 6 6 5 5 4 4 4 4 4
6 7 7 7 7 8 8 9 9 9 9 9 9 10 10 10 10 10 10 10 10 10 10 10 10 10 10 10 10 10 9 9 9 9 9 8 9 8 7 7 6 6 6 5 5 5 5 4 4 4 4 3
5 6 6 6 7 7 7 8 8 8 8 8 8 9 9 10 9 9 9 9 9 9 10 10 10 10 10 9 9 9 9 9 9 9 9 8 8 9 8 7 6 5 5 5 4 4 4 4 4 4 4 3
4 5 5 5 6 6 6 7 7 7 7 7 8 8 8 9 9 9 9 9 9 8 9 9 9 9 9 9 9 9 9 8 8 8 8 7 7 8 8 6 5 4 4 3 3 2 2 2 2 2 2 3
4 4 4 4 5 5 5 6 6 6 7 7 7 7 7 8 8 8 8 8 8 8 8 8 8 8 8 8 8 8 8 8 8 7 7 7 6 6 6 6 5 4 3 2 1 1 0 0 0 0 0 1
4 4 4 4 4 4 5 5 5 5 6 6 6 6 6 6 7 7 7 7 7 7 7 7 7 7 7 7 7 7 8 7 7 7 6 6 6 5 4 4 4 4 3 1 -0 -1 -1 -1 -1 -1 -1 -1
3 3 4 3 3 3 3 3 4 4 5 5 5 5 5 5 5 6 6 6 6 6 6 6 6 6 7 7 7 7 7 7 6 6 6 5 5 4 3 2 2 3 3 2 -1 -3 -2 -2 -2 -2 -2 -2
2 2 2 2 2 2 2 2 3 3 3 3 3 4 4 4 4 4 5 5 5 5 6 6 6 6 6 6 6 6 6 6 6 5 5 5 4 3 3 2 1 2 3 2 -2 -3 -3 -4 -4 -3 -3 -3
2 1 1 1 1 2 2 2 2 2 2 2 2 3 3 3 3 3 4 4 4 4 4 5 5 5 5 5 5 6 6 5 5 5 4 5 4 3 2 1 1 2 3 1 -1 -2 -1 -3 -3 -4 -4 -4
1 1 1 1 1 1 1 1 1 1 1 1 2 2 2 2 3 3 3 3 3 3 3 4 4 4 5 5 5 5 5 5 5 5 4 4 4 3 1 -0 0 2 2 2 1 0 -0 -2 -2 -1 -3 -6
0 0 0 1 1 1 1 1 1 1 1 1 1 1 1 1 2 2 2 2 2 2 2 3 3 3 4 4 4 4 4 5 4 4 4 3 3 3 2 0 -0 1 0 1 3 2 0 -1 -0 -0 -3 -5
-0 -0 -0 -0 0 0 0 0 0 0 -0 -0 -0 0 0 0 1 1 1 1 1 1 1 2 2 2 3 3 4 4 3 3 3 3 3 3 2 2 3 2 0 0 0 1 2 2 1 1 1 -1 -4 -3
-1 -1 -1 -1 -1 -1 -1 -1 -1 -1 -1 -1 -1 -1 -1 -1 -0 -0 0 0 0 1 0 1 1 1 1 2 2 3 3 2 2 2 2 1 2 1 1 2 1 0 0 0 1 1 0 0 1 1 -2 -2
Height
838 837 836 836 835 835 834 834 834 834 835 835 835 836 837 838 839 840 841 842 843 844 845 845 845 846 847 848 849 849 850 849 849 848 849 849 850 851 851 851 851 852 851 851 851 851 852 852 853 854 854 855
836 835 833 833 833 833 833 832 832 832 832 832 833 834 835 836 837 839 840 841 842 843 844 845 844 845 846 847 847 848 849 849 849 848 848 849 849 850 851 851 852 852 852 851 851 851 851 851 852 853 854 855
835 833 831 831 830 831 830 830 831 830 830 830 831 832 833 833 834 836 838 839 840 841 842 843 843 844 845 845 846 846 847 848 848 848 847 848 848 849 850 851 851 852 851 851 851 851 851 851 852 853 853 854
834 832 831 830 829 829 828 829 829 829 830 830 830 831 832 832 832 833 835 836 838 838 839 840 841 843 844 844 845 845 846 847 847 846 846 846 846 847 849 850 850 851 851 851 851 851 851 851 852 853 853 854
833 831 830 829 828 827 827 827 828 827 828 828 830 831 831 831 831 831 832 833 835 835 836 837 839 841 842 843 843 843 844 845 845 845 845 845 845 846 847 848 848 850 850 851 851 851 851 851 851 852 853 854
831 830 828 827 826 825 824 825 826 825 825 826 829 830 830 829 829 829 829 830 832 833 833 835 837 838 839 841 842 842 842 843 844 844 844 844 845 846 846 846 847 848 849 850 851 851 851 851 851 852 853 853
830 829 827 825 824 824 823 823 824 824 824 825 827 828 828 828 827 827 827 827 829 830 831 833 834 836 837 838 839 840 841 841 842 843 843 843 844 845 845 845 846 846 848 849 850 851 851 851 851 851 852 853
829 828 826 824 823 823 822 822 822 823 824 824 825 825 825 825 825 825 825 825 826 828 829 831 833 834 835 836 837 838 840 840 841 842 842 842 843 843 844 844 845 845 846 848 849 850 850 851 851 852 853 853
828 826 825 824 822 822 821 821 821 821 822 822 823 823 823 823 824 824 824 824 824 825 826 828 830 831 833 834 835 836 838 839 839 839 840 841 842 842 842 842 843 844 845 846 847 849 850 851 851 852 853 853
827 826 825 823 822 821 820 820 820 820 820 820 822 822 821 821 822 822 822 823 823 823 824 826 827 828 830 831 832 832 833 836 836 837 838 839 841 841 841 841 841 843 844 845 846 847 849 850 851 852 853 853
826 826 825 824 823 821 820 819 818 818 818 818 820 820 820 820 821 821 820 821 822 823 824 825 825 826 827 827 829 829 829 831 833 834 836 837 839 840 841 841 841 842 843 843 844 845 847 849 850 852 852 853
826 826 825 824 823 822 820 819 817 817 817 817 817 818 819 818 818 820 819 819 821 822 823 825 825 826 826 826 827 828 828 829 830 832 834 836 838 839 840 841 841 841 842 843 843 844 845 847 849 850 852 852
826 825 825 824 823 822 820 819 818 817 816 816 816 816 817 816 815 817 817 818 819 821 823 825 826 826 827 827 827 828 827 828 829 830 833 835 836 839 840 841 841 841 842 843 844 844 844 845 847 849 850 851
826 825 825 824 824 822 821 819 818 817 817 816 815 815 816 816 815 815 814 816 818 820 822 824 826 826 827 828 829 830 829 829 829 828 830 834 836 838 840 841 842 842 843 844 845 845 844 845 846 847 848 850
827 826 825 824 824 823 821 820 819 818 817 816 815 815 815 815 816 816 815 815 816 817 819 822 825 826 827 828 830 832 831 831 831 830 830 832 835 838 839 841 842 842 843 844 845 846 845 845 845 846 847 848
827 826 825 824 824 823 822 821 820 819 818 816 815 814 814 815 816 816 816 816 816 817 817 819 822 825 828 829 831 834 835 834 834 834 832 832 835 837 840 842 843 843 843 845 846 846 846 845 845 846 847 847
828 826 825 824 823 823 822 821 821 820 819 817 816 815 815 815 816 816 817 817 818 819 818 817 818 821 825 828 830 832 835 837 837 837 836 835 836 838 841 843 844 844 844 845 847 847 847 847 847 847 847 847
829 827 826 824 823 823 822 821 821 820 819 819 818 817 816 816 817 818 818 819 819 821 821 819 818 818 821 824 827 828 831 834 836 839 839 838 838 839 841 843 844 844 844 846 847 848 849 849 849 848 848 848
830 829 827 826 824 823 822 822 821 820 820 819 819 819 818 818 819 819 820 820 821 821 822 822 821 820 821 823 826 827 829 831 833 835 838 838 837 838 841 842 843 844 844 845 846 848 849 851 851 851 850 850
831 830 829 827 826 825 823 823 822 821 821 821 820 820 820 819 820 820 820 821 821 822 823 822 822 822 822 823 825 827 829 831 832 832 834 835 835 835 838 841 843 844 844 845 846 847 849 851 852 852 852 852
832 831 830 829 828 826 825 824 823 823 822 822 822 821 821 820 820 821 820 821 821 821 822 822 822 822 822 823 825 827 829 830 831 831 831 833 834 833 835 838 840 842 844 845 846 848 849 850 851 852 852 853
832 831 831 830 829 828 826 825 824 824 823 823 823 822 822 822 821 821 821 821 820 820 821 822 822 822 823 824 826 827 828 829 830 830 830 830 833 834 833 834 837 839 842 844 846 848 850 850 851 852 851 852
833 832 831 831 830 829 828 827 826 825 824 824 824 823 823 822 822 822 822 821 820 820 821 822 822 823 823 824 826 827 828 829 829 830 830 829 831 834 834 833 835 837 840 843 846 847 849 851 851 851 851 852
833 832 831 831 830 830 829 828 827 826 825 825 824 824 824 823 823 822 822 822 821 821 821 822 823 824 824 825 825 827 827 828 828 829 830 829 830 832 834 835 835 835 837 841 845 848 849 850 851 852 852 852
833 832 831 831 830 830 829 828 828 827 826 826 825 825 824 824 823 823 823 822 822 822 822 823 823 824 825 825 825 826 827 827 828 829 829 829 830 831 833 834 835 834 834 837 844 849 850 851 851 852 852 853
834 833 833 832 831 831 830 829 828 828 827 827 826 825 825 825 824 824 823 823 823 823 823 823 824 824 825 825 825 826 827 828 828 828 828 828 830 832 832 833 834 834 834 836 840 844 849 853 854 854 854 853
835 835 834 833 833 832 831 830 830 829 828 828 827 826 826 825 825 824 824 824 824 824 824 824 824 824 825 826 826 826 827 827 828 828 829 828 829 831 833 834 835 834 834 835 837 842 847 851 854 856 856 855
837 836 835 834 834 833 832 832 831 830 830 829 828 828 827 826 826 825 825 825 824 825 825 825 824 824 824 825 826 827 827 826 827 827 828 829 829 829 830 833 834 834 834 833 834 839 845 850 854 853 853 855
838 837 836 835 834 834 833 832 831 831 830 830 829 829 828 828 827 826 826 825 825 825 825 825 825 825 824 825 825 826 827 827 826 826 827 828 829 828 828 829 832 833 833 833 833 835 839 846 848 845 847 853
839 838 837 836 835 834 833 833 832 831 831 830 830 829 829 829 828 828 827 827 826 826 826 826 825 826 825 825 825 825 827 827 827 827 827 828 828 829 829 828 830 830 831 833 833 832 833 836 836 837 844 849
840 839 838 837 836 836 835 834 833 832 832 831 831 830 830 829 829 828 828 828 828 827 827 826 826 826 826 826 826 826 826 827 828 828 828 829 829 830 830 829 828 828 828 830 831 832 832 833 832 833 838 842
Wind_Speed
21 23 24 25 27 27 28 28 28 28 28 27 25 24 23 22 22 22 23 23 23 22 22 22 21 19 16 13 10 8 8 12 14 11 12 11 10 11 12 16 16 14 13 15 17 17 16 15 15 16 17 19
22 25 25 25 27 29 29 29 29 29 30 29 27 26 24 23 24 23 23 24 24 23 24 25 22 19 16 14 11 10 9 12 15 13 13 12 11 12 13 17 15 13 13 14 16 17 16 16 16 16 17 19
18 22 23 22 25 28 30 31 31 31 31 30 29 27 25 24 24 24 25 25 24 24 25 26 24 20 18 15 14 12 10 13 16 16 15 13 13 13 14 17 15 13 12 13 15 17 18 18 18 18 18 19
18 18 20 21 22 24 28 30 31 32 31 32 30 27 25 25 25 25 26 26 26 25 27 27 24 21 19 16 16 15 12 14 18 18 16 16 15 13 16 18 16 14 12 12 14 18 19 18 18 19 19 19
20 19 19 20 22 23 26 27 28 32 33 33 30 27 27 26 27 27 28 28 28 28 29 28 25 22 20 18 17 17 14 14 20 20 18 18 16 14 18 20 17 15 13 12 13 17 20 20 19 19 20 19
18 20 19 19 20 20 22 23 23 28 33 33 30 28 29 28 29 30 29 30 29 30 31 30 28 25 22 20 19 19 15 16 21 22 20 20 18 16 20 22 19 16 14 13 13 16 21 21 21 21 21 21
16 17 18 17 18 19 19 20 20 22 28 32 30 30 31 30 31 31 31 31 31 32 33 31 29 26 25 23 22 20 17 18 22 23 22 23 21 19 22 23 21 19 16 14 13 15 19 22 22 23 23 23
15 15 16 16 15 17 19 18 19 20 23 29 31 32 32 32 32 32 32 32 32 34 34 32 30 27 26 24 22 21 20 22 23 24 24 24 23 22 24 24 23 22 18 15 14 15 18 21 22 23 23 23
16 15 15 15 15 16 17 17 17 18 21 26 30 33 34 34 34 34 33 32 33 35 35 34 32 30 28 27 25 23 24 25 25 26 26 25 24 24 26 26 24 23 21 18 16 16 18 20 22 23 22 22
14 15 15 15 15 15 15 16 16 17 21 25 26 32 36 36 36 36 33 32 34 36 36 36 35 32 31 30 29 29 28 28 28 28 28 27 24 25 26 26 25 24 23 21 19 18 19 20 21 22 22 21
13 13 14 14 14 14 14 15 15 17 20 23 25 29 36 38 37 35 33 33 34 36 36 37 36 34 33 34 33 32 32 32 32 30 29 28 26 26 26 25 24 23 24 23 22 21 20 21 21 21 21 21
16 13 13 13 13 13 13 13 14 14 16 19 22 26 32 36 36 33 32 33 34 35 36 36 34 34 35 35 35 34 33 34 33 30 29 28 27 27 25 24 23 23 24 23 23 23 22 22 22 22 21 21
17 14 14 14 14 12 11 11 11 11 11 14 18 21 23 27 31 32 33 32 32 32 32 29 27 28 29 29 32 33 34 33 31 30 29 28 27 26 24 23 22 22 23 23 23 23 23 23 23 22 22 22
16 15 14 14 14 12 11 10 9 9 9 10 13 15 15 17 20 26 31 30 29 30 29 25 21 22 22 22 24 25 28 29 30 30 29 27 25 24 22 21 20 21 22 22 22 22 23 23 23 23 23 23
13 13 13 14 14 13 12 10 8 8 8 7 8 10 12 13 13 18 25 27 29 32 32 27 21 18 18 18 18 18 20 23 24 26 26 25 23 22 21 20 20 21 22 21 20 20 22 22 23 24 24 24
11 10 11 12 13 13 12 11 10 8 7 5 5 7 9 10 13 17 20 23 27 30 32 31 26 22 19 16 14 12 13 16 17 19 21 22 22 21 21 21 20 20 21 21 20 20 21 21 23 23 24 25
11 9 9 10 11 12 11 11 11 9 7 5 3 5 7 8 11 14 16 18 20 22 26 29 29 27 24 20 19 16 14 15 15 16 18 20 21 21 21 20 20 20 21 20 19 19 19 20 21 22 23 24
12 9 8 8 9 9 10 10 10 9 8 7 5 4 5 7 8 9 12 14 17 18 20 23 25 26 25 23 23 21 19 19 19 18 18 20 22 21 21 21 20 20 20 20 19 18 17 18 20 20 22 22
12 11 10 9 8 8 9 9 9 9 8 7 6 5 4 5 6 7 9 12 14 15 15 16 18 19 21 21 21 21 22 23 24 23 22 23 24 23 22 22 21 20 20 20 19 18 16 16 17 18 19 20
11 11 12 11 10 9 8 8 9 9 8 7 6 5 5 5 6 7 8 10 12 13 14 14 14 16 19 20 21 22 22 23 24 26 26 25 26 26 25 23 21 20 20 20 19 18 17 15 14 15 15 16
10 10 10 10 10 9 8 7 8 9 8 7 6 5 5 5 6 7 8 9 11 12 14 16 17 18 19 20 20 20 21 23 25 27 28 27 26 28 28 27 25 23 21 20 19 17 16 15 14 14 14 13
11 10 10 10 10 10 9 8 8 8 8 8 7 6 5 5 6 6 8 9 10 11 13 16 18 19 20 20 21 22 24 26 27 27 29 29 28 28 30 30 28 26 24 22 20 18 15 14 13 12 12 12
11 10 10 10 10 10 10 9 8 7 7 7 7 6 5 5 5 6 7 8 9 11 13 15 17 19 20 22 22 23 24 25 27 28 30 31 30 28 29 30 30 29 27 24 21 19 17 14 12 12 10 10
13 13 12 11 11 11 11 11 10 9 8 7 6 6 5 4 4 5 6 8 9 11 12 14 17 18 20 21 22 24 25 27 29 30 31 31 31 30 28 29 31 31 30 28 23 19 18 15 13 11 10 9
17 17 16 15 15 14 13 12 11 10 10 8 7 6 5 4 3 4 5 7 9 10 12 14 16 18 19 21 23 25 27 29 30 31 31 31 31 31 31 31 31 33 33 29 22 17 16 15 12 11 10 9
17 17 16 15 15 14 13 11 11 10 10 9 9 8 7 5 4 3 4 6 8 10 12 14 15 17 19 20 23 24 26 28 29 31 32 32 31 30 31 32 32 34 29 21 19 17 13 11 9 8 8 9
16 15 14 14 13 13 12 11 11 11 10 10 9 9 8 7 7 5 4 5 6 8 11 13 15 17 18 20 22 25 27 28 29 30 31 33 33 31 29 28 33 35 23 17 22 18 8 3 4 4 4 7
15 14 13 13 12 12 11 11 11 11 10 11 10 10 9 8 8 7 6 6 6 7 9 11 14 17 19 21 22 24 27 29 30 31 32 33 34 33 30 26 32 32 21 21 24 12 4 3 3 2 4 6
14 13 13 12 12 12 11 12 12 11 11 12 11 11 10 10 9 8 7 6 6 7 8 10 12 14 17 20 22 23 25 28 30 32 34 34 34 34 33 28 30 28 20 23 25 13 6 5 2 3 8 10
14 13 12 13 13 12 12 12 12 13 13 13 12 11 11 10 9 9 7 7 6 7 7 9 10 12 15 18 21 23 24 25 27 30 32 33 33 31 31 29 30 29 24 24 24 16 10 5 3 6 12 9
13 13 12 12 12 11 11 11 11 12 12 12 12 11 10 10 9 9 8 8 7 7 7 8 9 10 13 16 19 22 23 24 25 27 28 29 30 29 27 27 29 30 28 26 25 19 13 6 3 11 16 9
Wind_Direction
273 268 262 257 254 249 245 240 235 232 229 228 228 228 228 228 224 220 220 218 216 212 203 196 194 201 210 213 226 235 216 203 192 188 187 182 180 174 174 174 165 154 155 164 168 171 172 174 176 177 175 168
269 261 256 253 251 250 248 245 239 233 229 227 228 227 228 226 224 222 223 224 219 214 206 198 197 203 213 224 233 238 228 205 195 192 188 182 181 179 182 177 163 160 162 163 166 169 172 173 173 173 173 168
284 270 268 263 255 250 247 244 242 237 229 228 229 226 227 225 222 224 225 226 221 214 208 202 204 209 211 224 240 242 229 213 203 194 189 184 185 186 186 179 169 171 169 165 166 169 172 172 171 169 169 166
312 300 292 286 277 266 255 245 239 237 232 229 229 228 228 226 224 224 225 226 222 215 210 207 208 209 209 223 241 241 229 219 204 193 191 187 191 188 182 182 179 179 173 165 168 174 176 173 171 168 168 165
312 310 306 300 293 281 271 262 245 234 232 230 228 230 232 229 226 225 223 224 222 215 210 210 210 211 214 222 233 236 230 217 202 193 193 191 195 189 180 186 188 187 182 169 165 174 178 176 174 170 168 165
311 307 308 311 304 293 283 283 267 240 232 233 231 231 232 230 228 226 224 222 221 215 210 211 212 215 220 222 225 230 225 212 201 193 193 195 196 191 185 190 193 194 189 178 170 171 176 176 173 170 169 167
319 314 311 316 315 307 296 292 288 262 239 234 233 232 232 231 229 227 224 222 220 214 211 210 212 217 221 220 220 222 215 207 202 194 195 200 197 192 190 193 197 197 194 188 181 174 174 174 171 170 170 169
325 327 319 316 315 313 306 297 294 285 256 237 233 233 233 232 230 229 226 224 219 212 210 211 213 217 217 215 214 212 205 203 202 196 197 201 196 193 192 194 197 196 196 194 188 181 177 174 170 170 170 170
323 331 327 320 314 308 309 306 297 292 277 254 239 234 234 233 231 228 225 223 217 211 209 210 212 213 211 210 207 203 202 203 202 197 198 199 195 194 193 193 195 195 195 193 187 183 179 176 172 171 170 169
323 330 332 329 323 312 309 310 306 301 291 277 259 244 237 233 230 227 224 221 215 211 210 210 211 210 208 208 205 202 203 206 204 200 198 196 194 193 191 191 192 193 194 192 187 182 178 176 173 171 169 168
328 331 334 332 331 326 318 312 309 302 291 284 276 258 243 234 230 224 222 221 216 212 210 211 212 209 208 207 206 204 203 205 203 200 197 194 193 190 187 188 188 187 189 190 187 182 179 177 173 171 169 166
337 334 334 335 335 335 329 319 310 301 288 278 272 264 249 234 229 227 223 221 217 214 212 212 211 209 207 205 205 205 203 202 199 197 193 190 188 185 183 183 181 179 180 183 184 181 177 175 174 171 168 165
345 343 338 337 339 341 336 324 316 311 296 279 269 265 251 228 226 230 225 217 213 211 210 211 211 207 205 203 202 202 200 199 195 191 188 185 183 179 178 176 174 172 171 172 175 177 174 172 171 169 166 163
348 348 344 340 341 341 335 326 320 319 307 289 274 267 255 233 230 227 217 213 214 211 209 211 211 206 205 201 199 198 195 194 192 186 182 180 177 174 172 168 165 164 162 162 164 167 167 166 166 166 163 160
347 351 352 349 346 342 337 332 326 320 311 298 279 269 262 252 245 224 210 214 219 216 211 211 212 209 206 202 199 196 189 184 181 177 172 171 168 165 163 157 153 154 153 150 150 152 153 154 156 158 160 158
348 359 3 359 353 350 346 341 336 325 312 301 275 263 258 246 233 220 212 211 214 215 211 210 212 212 210 206 198 193 186 176 169 167 164 163 162 158 156 152 147 148 147 140 138 141 142 144 146 147 150 153
346 2 10 4 360 357 351 347 345 339 327 318 287 247 240 236 227 222 222 217 214 215 212 210 212 211 210 209 204 200 196 187 179 174 167 162 163 161 160 155 148 148 146 139 136 135 135 137 139 139 140 142
343 355 6 7 2 356 353 350 349 349 342 331 318 275 239 233 231 231 234 230 225 220 215 210 206 203 201 201 200 199 197 195 192 186 175 168 166 163 165 161 155 156 149 143 143 136 133 132 131 135 136 135
347 349 356 4 3 358 356 353 350 351 349 341 327 304 278 247 234 233 234 233 230 227 220 209 199 195 194 193 197 198 195 194 189 186 181 177 171 162 162 161 156 159 154 148 149 145 141 136 130 132 132 132
357 350 353 359 1 2 0 358 355 355 353 347 335 313 293 271 252 239 233 234 238 243 241 229 214 204 199 196 195 193 190 189 187 185 181 181 183 172 164 164 160 159 158 152 149 150 150 147 144 141 135 134
6 359 357 356 358 1 3 9 9 3 356 350 342 330 309 283 266 251 243 240 240 245 245 239 228 213 205 198 194 191 190 191 191 189 183 179 186 185 174 169 165 158 156 154 149 148 151 151 154 153 149 145
5 2 360 356 357 356 358 9 16 8 355 351 348 340 326 303 281 263 252 242 236 235 233 230 223 214 206 200 197 195 192 190 188 187 186 178 177 185 180 172 166 159 154 149 145 141 140 145 148 149 152 157
1 360 357 355 355 352 353 1 9 8 358 354 349 342 331 311 290 273 257 243 234 226 222 218 215 212 208 204 201 197 191 189 187 185 186 180 174 176 178 175 169 160 152 143 139 136 131 135 139 141 147 154
3 1 358 360 359 357 358 1 3 2 1 360 353 346 334 311 289 272 257 245 234 224 221 217 214 212 207 205 203 200 196 192 189 186 184 180 176 172 168 169 168 163 156 141 126 124 127 131 135 138 144 148
7 5 4 3 1 2 1 0 360 357 357 357 354 350 340 321 298 270 252 241 233 226 222 218 216 214 208 206 204 202 199 194 191 188 185 180 176 174 166 160 162 165 161 144 123 114 112 114 123 133 143 148
10 11 10 5 0 0 357 356 356 353 354 354 351 348 341 334 323 294 259 239 227 224 222 217 215 214 211 208 204 202 199 195 192 189 188 182 176 175 172 166 165 166 163 152 140 133 112 94 101 117 132 139
12 12 12 8 4 1 357 357 355 353 353 351 349 344 340 337 329 319 296 262 233 223 219 216 214 212 210 207 205 203 199 196 194 191 190 188 182 176 172 172 172 172 173 163 145 134 122 113 105 107 136 135
12 10 11 7 3 1 356 355 352 350 349 347 346 344 342 338 328 321 309 290 263 242 228 219 215 210 207 204 202 203 202 198 196 194 192 190 188 182 174 173 177 179 185 176 158 135 96 128 135 211 172 132
12 9 8 4 1 360 354 349 346 345 347 348 348 344 343 341 334 325 312 297 278 261 246 234 224 216 210 206 203 202 203 202 200 198 196 193 193 190 183 179 181 186 193 186 177 164 135 134 184 221 151 138
11 8 6 4 3 2 356 350 349 350 350 349 348 346 343 339 333 325 314 302 283 266 253 242 234 225 217 212 208 205 204 204 202 199 198 197 197 195 192 187 184 190 197 194 191 187 181 190 213 162 147 147
9 7 5 3 1 360 356 350 349 349 347 344 344 344 340 335 330 323 314 304 290 273 258 243 234 227 221 216 212 210 208 206 205 203 202 202 200 198 199 195 190 193 194 194 200 206 209 229 226 166 164 170